PDT,Max TemperatureF,Mean TemperatureF,Min TemperatureF,Max Dew PointF,MeanDew PointF,Min DewpointF,Max Humidity, Mean Humidity, Min Humidity, Max Sea Level PressureIn, Mean Sea Level PressureIn, Min Sea Level PressureIn, Max VisibilityMiles, Mean VisibilityMiles, Min VisibilityMiles, Max Wind SpeedMPH, Mean Wind SpeedMPH, Max Gust SpeedMPH,PrecipitationIn, CloudCover, Events, WindDirDegrees
2012-9-1,82,62,41,47,27,10,89,48,7,30.01,29.95,29.86,10,10,10,18,6,25,0.00,0,,218
2012-9-2,88,62,35,28,19,12,44,26,7,30.11,30.02,29.96,10,10,10,13,5,17,0.00,0,,80
2012-9-3,91,64,37,23,18,14,44,25,6,30.07,29.99,29.93,10,10,10,15,4,22,0.00,0,,124
2012-9-4,91,66,40,19,16,10,38,22,5,30.11,30.02,29.96,10,10,10,16,5,29,0.00,0,,177
2012-9-5,93,66,38,35,22,12,38,22,6,30.07,29.96,29.86,10,10,10,18,6,23,0.00,0,,204
2012-9-6,85,72,58,53,44,21,67,43,19,30.10,29.98,29.86,10,8,1,23,8,30,0.01,3,Thunderstorm,275
2012-9-7,90,69,48,42,37,29,71,43,15,30.12,30.06,30.03,10,10,10,24,9,33,0.00,0,,48
2012-9-8,94,77,60,41,32,27,31,22,12,30.11,29.98,29.88,10,10,10,18,8,23,0.00,0,,60
2012-9-9,93,74,54,47,38,22,59,36,13,29.94,29.85,29.76,10,10,10,26,9,35,T,1,,243
2012-9-10,85,66,47,31,23,11,42,26,10,29.95,29.88,29.84,10,10,10,20,6,29,0.01,0,,286
2012-9-11,83,63,42,29,22,11,49,30,10,30.06,29.97,29.88,10,10,10,16,7,22,0.00,0,,337
2012-9-12,83,59,34,17,9,2,47,26,4,30.25,30.18,30.07,10,10,10,16,6,18,0.00,0,,11
2012-9-13,89,61,32,15,10,4,44,25,5,30.34,30.23,30.12,10,10,10,15,7,18,0.00,0,,79
2012-9-14,91,62,32,23,13,5,32,19,5,30.23,30.14,30.07,10,10,10,18,7,36,0.00,0,,166
2012-9-15,89,65,40,26,21,16,39,24,9,30.18,30.08,30.02,10,10,10,24,7,35,0.00,0,,198
2012-9-16,86,65,44,25,21,16,41,26,10,30.19,30.05,30.00,10,10,10,20,6,24,0.00,0,,287
2012-9-17,85,62,39,30,22,15,44,26,8,30.15,30.08,30.02,10,10,8,12,5,17,0.00,0,,54
2012-9-18,88,61,34,23,18,13,47,27,7,30.17,30.09,30.04,10,10,10,13,5,23,0.00,0,,50
2012-9-19,89,63,37,21,18,13,44,26,7,30.17,30.09,30.03,10,10,9,21,8,28,0.00,0,,49
2012-9-20,89,64,39,24,19,17,41,24,7,30.16,30.07,30.00,10,9,3,18,6,23,0.00,0,,71
2012-9-21,90,64,37,22,19,17,44,26,7,30.16,30.00,29.89,10,7,2,17,5,20,0.00,0,,88
2012-9-22,85,65,45,30,24,20,39,25,10,30.01,29.96,29.90,10,10,7,15,5,22,0.00,0,,175
2012-9-23,73,58,43,45,33,24,61,40,19,30.05,29.98,29.95,10,10,6,29,6,39,0.01,4,Rain,106
2012-9-24,70,55,40,45,41,36,86,59,31,30.06,30.01,29.97,10,10,10,22,7,28,0.01,3,Rain,333
2012-9-25,77,56,34,40,34,28,82,52,21,30.08,30.01,29.95,10,10,10,13,5,16,0.00,0,,129
2012-9-26,82,59,36,36,32,26,64,41,18,30.06,30.00,29.95,10,10,9,13,3,15,0.00,0,,77
2012-9-27,85,61,37,36,30,26,64,39,14,30.09,30.00,29.95,10,10,9,12,4,24,0.00,0,,101
2012-9-28,86,61,36,32,27,22,56,34,11,30.12,29.98,29.91,10,10,10,13,3,18,0.00,0,,124
2012-9-29,86,63,39,32,27,22,53,33,12,30.12,30.07,29.99,10,10,10,14,5,18,0.00,0,,147
2012-9-30,87,62,37,29,25,20,52,32,11,30.25,30.18,30.13,10,10,10,13,5,20,0.00,0,,322